Location: ??????
(41.3164°N, 22.6615°E)
Time: 00:30:40
(UTC+00:00)

CUBESAT XI-V - Pass Details

Date: 01 July 2022
Orbit: 668 x 690 km, 98.1° (Epoch: 15 August)

Event Time Altitude Azimuth Distance (km) Brightness Sun altitude
Exits shadow 22:38:37 - 95° (E) 2,481 ? -25.6°
Reaches altitude 10° 22:41:06 10° 68° (ENE) 2,107 ? -25.6°
Maximum altitude 22:41:44 10° 60° (ENE) 2,089 ? -25.6°
Drops below altitude 10° 22:42:23 10° 52° (NE) 2,108 ? -25.6°
Sets 22:46:50 0° 11° (N) 3,024 ? -25.6°
